Weather History for KLEX - August, 2013

Change the Weather History Date:

Saturday, August 10, 2013

  Actual Average Record
Temperature  
Mean Temperature 78 °F 76 °F  
Max Temperature 83 °F 86 °F 99 °F (1911)
Min Temperature 72 °F 66 °F 52 °F (1972)
Degree Days  
Heating Degree Days 0 0  
Month to date heating degree days 0 0  
Since 1 June heating degree days 0 11  
Since 1 July heating degree days 0 0  
Cooling Degree Days 13 11  
Month to date cooling degree days 102 110  
Year to date cooling degree days 825 806  
Since 1 June cooling degree days 672 699  
Growing Degree Days 27 (Base 50)    
Moisture  
Dew Point 71 °F    
Average Humidity 85    
Maximum Humidity 100    
Minimum Humidity 69    
Precipitation  
Precipitation T in 0.11 in 5.38 in (2014)
Month to date precipitation 1.64 1.16  
Year to date precipitation 40.14 29.58  
Snow  
Snow 0.00 in 0.00 in - ()
Month to date snowfall 0.0 0.0  
Since 1 June snowfall 0.0 0.0  
Since 1 July snowfall 0.0 0.0  
Snow Depth 0.00 in    
Sea Level Pressure  
Sea Level Pressure 30.07 in    
Wind  
Wind Speed 2 mph (ESE)    
Max Wind Speed 9 mph    
Max Gust Speed 11 mph    
Visibility 8 miles    
Events Fog , Rain , Thunderstorm    
T = Trace of Precipitation, MM = Missing Value Source: NWS Daily Summary

Daily Weather History Graph

Daily Weather History Graph

Search for Another Location

Airport or City:

Trip Planner

Search our weather history database for the weather conditions in past years. The results will help you decide how hot, cold, wet, or windy it might be!

Date:

Astronomy

Aug. 10, 2013 Rise Set
Actual Time 6:49 AM EDT 8:37 PM EDT
Civil Twilight 6:20 AM EDT 9:05 PM EDT
Nautical Twilight 5:46 AM EDT 9:40 PM EDT
Astronomical Twilight 5:09 AM EDT 10:16 PM EDT
Moon 10:30 AM EDT (8/10) 10:23 PM EDT (8/10)
Length of Visible Light 14h 45m
Length of Day
13h 48m
Waxing Crescent, 14% of the Moon is Illuminated
Aug 10
Waxing Crescent
Aug 14
First Quarter
Aug 20
Full
Aug 28
Last Quarter
Sep 5
New

Hourly Weather History & Observations

Time (EDT) Temp. Heat Index Dew Point Humidity Pressure Visibility Wind Dir Wind Speed Gust Speed Precip Events Conditions
12:54 AM 72.0 °F - 70.0 °F 93% 30.04 in 10.0 mi South 3.5 mph - 0.00 in   Mostly Cloudy
1:08 AM 73.0 °F - 70.0 °F 90% 30.07 in 10.0 mi Calm Calm - N/A   Partly Cloudy
1:22 AM 72.0 °F - 70.0 °F 93% 30.06 in 9.0 mi Calm Calm - N/A   Mostly Cloudy
1:29 AM 72.0 °F - 70.0 °F 93% 30.06 in 9.0 mi Calm Calm - N/A   Mostly Cloudy
1:54 AM 72.0 °F - 70.0 °F 93% 30.03 in 6.0 mi Calm Calm - N/A   Overcast
2:02 AM 72.0 °F - 70.0 °F 93% 30.06 in 1.8 mi Calm Calm - N/A   Overcast
2:14 AM 72.0 °F - 71.1 °F 97% 30.06 in 0.5 mi Calm Calm - N/A Fog Fog
2:24 AM 72.0 °F - 70.0 °F 93% 30.07 in 0.2 mi Calm Calm - N/A Fog Fog
2:40 AM 72.0 °F - 71.1 °F 97% 30.07 in 0.5 mi Calm Calm - N/A Fog Fog
2:54 AM 72.0 °F - 71.1 °F 97% 30.04 in 2.0 mi Calm Calm - N/A   Overcast
3:02 AM 72.0 °F - 71.1 °F 97% 30.07 in 4.0 mi Calm Calm - N/A   Overcast
3:10 AM 72.0 °F - 71.1 °F 97% 30.07 in 5.0 mi Calm Calm - 0.00 in Rain Light Rain
3:54 AM 72.0 °F - 70.0 °F 93% 30.04 in 10.0 mi Calm Calm - 0.00 in Rain Light Rain
4:43 AM 72.0 °F - 70.0 °F 93% 30.07 in 7.0 mi South 3.5 mph - 0.00 in   Overcast
4:54 AM 72.0 °F - 70.0 °F 93% 30.04 in 6.0 mi South 3.5 mph - 0.00 in   Overcast
5:54 AM 72.0 °F - 70.0 °F 93% 30.05 in 9.0 mi SW 3.5 mph - N/A   Overcast
6:54 AM 72.0 °F - 70.0 °F 93% 30.06 in 6.0 mi SW 3.5 mph - 0.00 in   Overcast
7:47 AM 72.0 °F - 71.1 °F 97% 30.10 in 2.0 mi Calm Calm - N/A   Overcast
7:54 AM 73.0 °F - 71.1 °F 93% 30.08 in 1.5 mi Calm Calm - N/A   Overcast
8:54 AM 73.0 °F - 71.1 °F 93% 30.09 in 5.0 mi Calm Calm - N/A   Overcast
9:54 AM 75.0 °F - 71.1 °F 87% 30.09 in 9.0 mi Calm Calm - N/A   Overcast
10:54 AM 79.0 °F - 72.0 °F 79% 30.10 in 10.0 mi Calm Calm - N/A   Mostly Cloudy
11:52 AM 78.8 °F - 71.6 °F 78% 30.13 in 10.0 mi SW 3.5 mph - N/A   Mostly Cloudy
11:54 AM 79.0 °F - 72.0 °F 79% 30.10 in 10.0 mi Calm Calm - N/A   Mostly Cloudy
12:54 PM 79.0 °F - 72.0 °F 79% 30.10 in 10.0 mi West 3.5 mph - N/A   Mostly Cloudy
1:13 PM 79.0 °F - 72.0 °F 79% 30.13 in 10.0 mi NNW 5.8 mph - N/A   Overcast
1:47 PM 80.1 °F 83.8 °F 72.0 °F 76% 30.12 in 10.0 mi North 8.1 mph - N/A   Mostly Cloudy
1:54 PM 80.1 °F 84.2 °F 73.0 °F 79% 30.09 in 10.0 mi North 6.9 mph - N/A   Scattered Clouds
2:12 PM 80.1 °F 84.2 °F 73.0 °F 79% 30.11 in 10.0 mi NNE 5.8 mph - N/A   Mostly Cloudy
2:32 PM 80.1 °F 83.8 °F 72.0 °F 76% 30.10 in 10.0 mi NNE 5.8 mph - N/A   Scattered Clouds
2:45 PM 80.1 °F 83.8 °F 72.0 °F 76% 30.10 in 10.0 mi NNE 6.9 mph - N/A   Mostly Cloudy
2:54 PM 80.1 °F 83.8 °F 72.0 °F 76% 30.08 in 10.0 mi NE 8.1 mph - N/A   Mostly Cloudy
3:54 PM 81.0 °F 84.9 °F 71.1 °F 72% 30.06 in 10.0 mi NE 8.1 mph - N/A   Mostly Cloudy
4:42 PM 81.0 °F 85.2 °F 72.0 °F 74% 30.08 in 10.0 mi North 8.1 mph - N/A   Overcast
4:54 PM 82.0 °F 86.7 °F 72.0 °F 71% 30.05 in 10.0 mi NNE 4.6 mph - N/A Thunderstorm Mostly Cloudy
5:10 PM 82.9 °F 88.0 °F 72.0 °F 69% 30.07 in 10.0 mi Calm Calm - N/A   Mostly Cloudy
5:54 PM 79.0 °F - 72.0 °F 79% 30.05 in 10.0 mi Calm Calm - N/A   Overcast
6:04 PM 80.1 °F 83.8 °F 72.0 °F 76% 30.08 in 10.0 mi SSE 3.5 mph - N/A   Overcast
6:54 PM 79.0 °F - 72.0 °F 79% 30.05 in 10.0 mi Calm Calm - N/A   Overcast
7:54 PM 79.0 °F - 72.0 °F 79% 30.05 in 10.0 mi Calm Calm - N/A   Mostly Cloudy
8:54 PM 75.9 °F - 73.0 °F 91% 30.07 in 7.0 mi SE 4.6 mph - N/A   Overcast
9:44 PM 75.9 °F - 72.0 °F 87% 30.10 in 8.0 mi SSE 3.5 mph - N/A   Overcast
9:54 PM 75.9 °F - 72.0 °F 87% 30.07 in 9.0 mi South 4.6 mph - N/A   Overcast
10:54 PM 75.0 °F - 72.0 °F 90% 30.09 in 6.0 mi Calm Calm - N/A   Overcast
11:54 PM 73.0 °F - 71.1 °F 93% 30.08 in 7.0 mi South 3.5 mph - N/A   Clear